Preview of NWS' New Version of Forecast
This preview is not operational and should not be used for support decisions.

Regional Weather Roundup (RWR)

Issued by National Weather Service (NWS)

                            
000
ASUS42 KTBW 192217
RWRFL 
FLORIDA REGIONAL WEATHER ROUNDUP
NATIONAL WEATHER SERVICE TAMPA BAY RUSKIN FL
500 PM EST TUE FEB 19 2019

NOTE: "FAIR" INDICATES FEW OR NO CLOUDS BELOW 12,000 FEET WITH NO
SIGNIFICANT WEATHER AND/OR OBSTRUCTIONS TO VISIBILITY.

FLZ001>010-012>015-112-114-115-192300-
PANHANDLE FLORIDA
  
CITY           SKY/WX    TMP DP  RH WIND       PRES   REMARKS
PENSACOLA      CLOUDY    65  59  81 E14       30.06F                  
PENSACOLA NAS  CLOUDY    65  61  87 E14       30.05                   
MILTON NAS     CLOUDY    62  54  74 E9        30.07                   
CRESTVIEW      CLOUDY    67  55  65 VRB3      30.10F                  
DUKE FIELD     CLOUDY    68  57  67 CALM      30.08F                  
VALPARAISO     CLOUDY    66  60  80 SE14      30.07S                  
MARY ESTHER    CLOUDY    66  60  81 SE13      30.06F                  
PANAMA CITY    CLOUDY    72  60  66 E8        30.09S                  
TYNDALL AFB    PTSUNNY   73  63  72 E10       30.08F                  
APALACHICOLA   PTSUNNY   70  59  68 E9        30.11R                  

STATION/POSITION SKY/WX   TEMP    WIND        PRES    WAVE   SWELL
                          AIR SEA DIR/SP/G            HT/PER HT/PER
                          (F)     (DEG/KT/KT) (MB)    (FT/S) (FT/S)
30.1N   87.6W              66     100/ 16/ 19 1016.8    6/ 7   3/ 8
29.2N   88.2W                     120/ 14/ 16 1016.0F   6/ 7   5/ 7
PANAMA CITY BEAC           66 62  120/ 11/ 13 1019.0F
TOWER C                    65     100/ 14/ 15 1019.2F

$$
FLZ011-016>038-118-127-128-134-139-239-192300-
NORTH FLORIDA
  
CITY           SKY/WX    TMP DP  RH WIND       PRES   REMARKS
MARIANNA       CLOUDY    69  54  58 E14       30.13F                  
TALLAHASSEE    CLOUDY    73  60  63 E10       30.13S                  
PERRY          CLOUDY    74  63  68 E9        30.15R                  
LIVE OAK       CLOUDY    63  59  88 NE7G15    30.18F                  
CROSS CITY     CLOUDY    74  64  71 NE8G18    30.13S                  
LAKE CITY      CLOUDY    59  55  88 E6        30.20S                  
GAINESVILLE    CLOUDY    69  61  75 NE14      30.19S                  
WILLISTON        N/A    N/A N/A N/A MISG        N/A                   
PALATKA        CLOUDY    64  64 100 N12       30.19R                  
MAYPORT NAS    LGT RAIN  59  58  96 N18       30.21S FOG              
JACKSONVILLE   LGT RAIN  57  56  96 N10       30.23S FOG              
JAX NAS        CLOUDY    60  59  96 N17       30.23S FOG              
JAX CECIL      CLOUDY    59  57  94 NE9       30.21F                  
FERNANDINA BEA RAIN      57  56  97 N16G22    30.23S FOG              
ST AUGUSTINE   CLOUDY    61  61 100 N13       30.21R                  
PALM COAST     CLOUDY    72  70  94 E10       30.15S                  

STATION/POSITION SKY/WX   TEMP    WIND        PRES    WAVE   SWELL
                          AIR SEA DIR/SP/G            HT/PER HT/PER
                          (F)     (DEG/KT/KT) (MB)    (FT/S) (FT/S)
SHELL POINT      NOT AVBL
KEATON BEACH     NOT AVBL
CEDAR KEY                  79      CALM  /  1 1019.6F
FERNANDINA                 58 62   10/ 13/ 22 1024.6F
30.7N   81.3W                 59                N/A     7/ 8
MAYPORT                    58 62   10/ 16/ 20 1023.1F
31.4N   80.9W              58 58   50/ 23/ 27 1023.9F   8/ 7   2/12
ST AUGUSTINE               60 61  350/ 17/ 20 1022.3R

$$
FLZ040-043>046-052-053-057-058-063-144-192300-
INTERIOR CENTRAL FLORIDA
  
CITY           SKY/WX    TMP DP  RH WIND       PRES   REMARKS
OCALA          FAIR      79  70  74 NE10      30.12F                  
LEESBURG       FAIR      82  67  60 CALM      30.12S                  
SANFORD        LGT RAIN  79  73  82 SE9       30.12S                  
ORLANDO EXEC   CLOUDY    81  70  69 SE9       30.12S                  
ORLANDO INTL   PTSUNNY   80  70  71 E8        30.12S                  
KISSIMMEE      LGT RAIN  80  72  76 E8        30.13S                  
WINTER HAVEN   FAIR      87  68  52 E9        30.11F                  
LAKELAND       MOSUNNY   84  63  48 SE12      30.10F                  
BARTOW         MOSUNNY   86  64  48 SE13G18   30.09F                  
SEBRING        FAIR      85  66  52 SE14      30.12R                  
OKEECHOBEE     FAIR      82  64  54 SE12      30.12S                  

$$
FLZ041-047-054-059-064-141-147-192300-
EAST CENTRAL FLORIDA
  
CITY           SKY/WX    TMP DP  RH WIND       PRES   REMARKS
ORMOND BEACH   PTSUNNY   72  70  94 E7        30.15S                  
DAYTONA BEACH  FAIR      75  73  93 E8        30.14S                  
DELAND         CLOUDY    77  72  83 E13       30.12S                  
NEW SMYRNA BEA MOSUNNY   73  70  88 E9        30.15F                  
JFK SPACE CTR  FAIR      80  71  75 SE13      30.14                   
TITUSVILLE     MOSUNNY   82  72  69 SE15      30.15                   
CAPE CANAVERAL FAIR      77  72  84 SE12      30.13S                  
PATRICK AFB    FAIR      75  74  99 SE14      30.13F                  
MELBOURNE      FAIR      78  70  76 SE14      30.14S                  
VERO BEACH     FAIR      79  69  71 SE15      30.15F                  
FT PIERCE      FAIR      79  69  71 SE12      30.15S                  
STUART         SHOWER    79  72  78 E12       30.16S                  

STATION/POSITION SKY/WX   TEMP    WIND        PRES    WAVE   SWELL
                          AIR SEA DIR/SP/G            HT/PER HT/PER
                          (F)     (DEG/KT/KT) (MB)    (FT/S) (FT/S)
28.5N   80.2W              74     130/  8/ 10 1021.4F   4/ 8   3/ 8
28.9N   78.5W              76 78  130/ 12/ 14 1022.6F   6/ 7   5/ 7
TRIDENT PIER               74 68   90/  5/ 11 1021.9F
28.4N   80.5W                 65                N/A     2/ 8

$$
FLZ050-056-061-142-242-148-248-149-249-151-251-155-255-
160-260-192300-
WEST CENTRAL FLORIDA
  
CITY           SKY/WX    TMP DP  RH WIND       PRES   REMARKS
CRYSTAL RIVER  PTSUNNY   84  66  54 CALM      30.10S                  
INVERNESS      FAIR      84  72  65 E3        30.11S                  
BROOKSVILLE    FAIR      87  65  47 SE7       30.10F                  
CLEARWATER AIR FAIR      82  64  54 E5        30.09S                  
ST PETE CLEARW FAIR      84  67  56 E5        30.09S                  
TAMPA INTL     PTSUNNY   83  66  56 SW3       30.09F                  
TAMPA EXEC     FAIR      84  64  51 SE7       30.10S                  
PLANT CITY     FAIR      88  66  48 SE7       30.12S                  
MACDILL AFB    PTSUNNY   84  67  56 CALM      30.08F                  
PETER O KNIGHT CLOUDY    84  68  58 SW3       30.09F                  
ST PETERSBURG  FAIR      80  69  69 SE3       30.07F                  
SARASOTA       PTSUNNY   81  68  64 W8        30.07S                  
VENICE         FAIR      81  72  74 VRB5      30.10R                  

STATION/POSITION SKY/WX   TEMP    WIND        PRES    WAVE   SWELL
                          AIR SEA DIR/SP/G            HT/PER HT/PER
                          (F)     (DEG/KT/KT) (MB)    (FT/S) (FT/S)
27.3N   84.2W                 71                N/A     4/ 8
CLEARWATER BEACH           75 70  200/ 10/ 11 1019.1F
MIDDLE TAMPA BAY           75     290/  5/  6 1019.2F
VENICE                     78 69  290/  3/  3   N/A

$$
FLZ066-069-070-075>078-162-262-165-265-192300-
SOUTHWEST FLORIDA AND KEYS
  
CITY           SKY/WX    TMP DP  RH WIND       PRES   REMARKS
PUNTA GORDA    FAIR      86  61  42 SE16G24   30.10S                  
FT MYERS       FAIR      85  61  44 SE18      30.08R                  
SOUTHWEST INTL FAIR      84  63  49 SE16G23   30.09R                  
NAPLES         FAIR      86  62  44 SE16G23   30.08S                  
IMMOKALEE      FAIR      84  63  48 SE14G20   30.08S                  
MARATHON       FAIR      83  69  62 SE9G16    30.10R                  
KEY WEST NAS   FAIR      81  69  67 E17       30.08F                  
KEY WEST INTL  FAIR      81  70  69 E17       30.09S                  

STATION/POSITION SKY/WX   TEMP    WIND        PRES    WAVE   SWELL
                          AIR SEA DIR/SP/G            HT/PER HT/PER
                          (F)     (DEG/KT/KT) (MB)    (FT/S) (FT/S)
NAPLES                     79 75  160/ 10/ 12 1018.9S
26.0N   85.6W              79 80  130/ 17/ 23 1017.1
DRY TORTUGAS               78     100/ 12/ 13 1018.4F
SAND KEY                   77                 1018.5F
SOMBRERO KEY               78                 1018.5R
LONG KEY                   78 79  120/ 17/ 20 1019.1S
MOLASSES REEF              78 78  130/ 15/ 16 1019.8S

$$
FLZ067-068-071>074-168-172>174-192300-
SOUTHEAST FLORIDA 
  
CITY           SKY/WX    TMP DP  RH WIND       PRES   REMARKS
W PALM BEACH   FAIR      80  66  62 E20       30.15S                  
BOCA RATON     MOSUNNY   79  68  69 SE18      30.14S                  
FT LAUDER-EXEC FAIR      80  69  69 E17       30.13S                  
FT LAUDERDALE  FAIR      80  70  71 E18       30.12S                  
POMPANO BEACH  FAIR      80  69  69 E18       30.13S                  
PEMBROKE PINES FAIR      79  67  66 E17G23    30.14S                  
OPA LOCKA      FAIR      80  66  62 E17       30.13S                  
MIAMI          PTSUNNY   80  68  66 E15       30.13S                  
WEST KENDALL     N/A     79  68  69 E15       30.12S                  
HOMESTEAD      PTSUNNY   79  70  72 E12       30.11S                  

STATION/POSITION SKY/WX   TEMP    WIND        PRES    WAVE   SWELL
                          AIR SEA DIR/SP/G            HT/PER HT/PER
                          (F)     (DEG/KT/KT) (MB)    (FT/S) (FT/S)
PORT EVERGLADES            79     100/  5/ 13 1020.4
VIRGINIA KEY               78 79   80/ 10/ 15 1019.5F
LAKE WORTH                 77 78  110/ 15/ 17 1021.9R
FOWEY ROCKS                77 78   90/ 16/ 17 1020.5F
SETTLEMENT POINT           78     120/ 18/ 21 1021.3S

$$